Location: Hurecourt
(47.9030°N, 6.0653°E)
Time: 03:38:03
(UTC+00:00)

UNK - Pass Details

Date: 14 July 2020
Orbit: 667 x 685 km, 98.1° (Epoch: 06 August)

Event Time Altitude Azimuth Distance (km) Brightness Sun altitude
Exits shadow 01:33:05 27° 188° (S) 1,300 4.6 -16.1°
Maximum altitude 01:35:30 60° 259° (WSW) 778 3.8 -15.9°
Drops below altitude 10° 01:40:06 10° 339° (NNW) 2,128 6.9 -15.6°
Sets 01:42:23 0° 344° (NNW) 3,050 7.8 -15.4°
